Content
SEND FEEDBACK

Daily
Averages
Monthly
Summary
United Kingdom

MILDENHALL, ENGLAND


Home > Europe > United Kingdom > England
Elevation: 33 feet     Latitude: 52 22N     Longitude: 000 29E

WEATHER
 
SELECT A DAY
Number of Records: 174,833;   Date Range: 8/10/96 - 11/26/14
 
SHARE

PRINT THIS DATA

[ ← Previous Day ]
WEATHER ALMANAC - OCTOBER 12, 2013
[ Next Day → ]
[ °C ]   °F
Weather ElementAverageHighLow
Temperature53.1 °F57.2 °F (1:06 am)49.8 °F (8:58 pm)
Dewpoint48.3 °F52 °F (5:58 am)41.9 °F (12:58 pm)
Humidity84.4 %94 % (6:50 am)61 % (12:58 pm)
Barometer30.06 in30.15 in (11:58 am)29.98 in (11:33 pm)
Wind Speed8.6 mph20.7 mph (1:23 am)
Wind Gust29.9 mph (1:58 am)
Weather ElementAverage
Visibility5.8 mi
Wind DirectionSE (130.8 °)

Weather ElementTotal
Precipitation0.19 in
Heating Degree Days11.5 (Base 65)
Growing Degree Days3.5 (Base 50)
Averaged from 120 records on October 12, 2013
WEATHER CONDITIONS BREAKOUT
WIND DIRECTION BREAKOUT
WEATHER BY HOUR - OCTOBER 12, 2013
[ °C ]   °F
Local TimeTemperatureDewpointHumidityBarometerVisibilityWind DirectionWind SpeedGust SpeedPrecipitationEventsConditions
12:13 AM55.4 °F46.4 °F72 %30.08 in6.2 miNNE (30°)19.6 mph25.3 mphOvercast
12:19 AM55.4 °F46.4 °F72 %30.07 in6.2 miNNE (30°)15.0 mph24.2 mphOvercast
12:58 AM56.1 °F47.3 °F72 %30.08 in6.2 miNE (40°)18.4 mph25.3 mphOvercast
1:06 AM57.2 °F46.4 °F67 %30.07 in6.2 miNE (40°)13.8 mph28.8 mphRainLight Rain
1:23 AM55.4 °F46.4 °F72 %30.07 in6.2 miNE (40°)20.7 mph27.6 mphOvercast
1:58 AM56.7 °F47.1 °F70 %30.07 in6.2 miNE (40°)20.7 mph29.9 mph0.00 inOvercast
2:12 AM57.2 °F46.4 °F67 %30.06 in6.2 miNE (40°)15.0 mph27.6 mphRainLight Rain
2:35 AM55.4 °F48.2 °F77 %30.05 in6.2 miNE (40°)18.4 mph23.0 mphRainLight Rain
2:58 AM55.8 °F48.7 °F77 %30.06 in6.2 miNE (40°)16.1 mph23.0 mph0.00 inRainLight Rain
3:15 AM55.4 °F50.0 °F82 %30.04 in6.2 miNNE (30°)16.1 mph25.3 mphRainLight Rain
3:36 AM55.4 °F50.0 °F82 %30.03 in6.2 miNE (40°)15.0 mph20.7 mphRainLight Rain
3:45 AM55.4 °F50.0 °F82 %30.03 in6.2 miNNE (30°)16.1 mph23.0 mphRainLight Rain
3:46 AM55.4 °F50.0 °F82 %30.03 in6.2 miNNE (30°)18.4 mph23.0 mphRainLight Rain
3:58 AM55.4 °F50.0 °F82 %30.04 in6.2 miNNE (30°)17.3 mph24.2 mph0.01 inRainLight Rain
4:13 AM55.4 °F50.0 °F82 %30.03 in6.2 miNE (40°)13.8 mph24.2 mphRainLight Rain
4:25 AM55.4 °F50.0 °F82 %30.03 in5.0 miNE (40°)12.7 mph20.7 mphRainLight Rain
4:41 AM55.4 °F51.8 °F88 %30.03 in3.7 miNE (40°)12.7 mphRainLight Rain
4:48 AM55.4 °F51.8 °F88 %30.03 in3.7 miNE (40°)11.5 mphRainLight Rain
4:51 AM55.4 °F51.8 °F88 %30.03 in3.7 miNE (40°)11.5 mphRainLight Rain
4:58 AM55.4 °F51.1 °F85 %30.04 in3.7 miNE (40°)12.7 mph0.01 inRainLight Rain
5:03 AM55.4 °F51.8 °F88 %30.03 in3.7 miNE (40°)12.7 mphRainLight Rain
5:16 AM55.4 °F51.8 °F88 %30.04 in5.0 miNE (50°)12.7 mphRainLight Rain
5:23 AM55.4 °F51.8 °F88 %30.04 in5.6 miNE (50°)12.7 mphRainLight Rain
5:24 AM55.4 °F51.8 °F88 %30.04 in5.6 miNE (50°)13.8 mphRainLight Rain
5:27 AM55.4 °F51.8 °F88 %30.04 in5.0 miNE (40°)11.5 mphRainLight Rain
5:29 AM55.4 °F51.8 °F88 %30.04 in5.0 miNE (50°)11.5 mphRainLight Rain
5:30 AM55.4 °F51.8 °F88 %30.04 in5.0 miNE (50°)12.7 mphRainLight Rain
5:32 AM55.4 °F51.8 °F88 %30.04 in5.0 miNE (50°)11.5 mphRainLight Rain
5:36 AM55.4 °F51.8 °F88 %30.04 in5.0 miNE (50°)11.5 mphRainLight Rain
5:38 AM55.4 °F51.8 °F88 %30.04 in5.0 miNE (50°)11.5 mphRainLight Rain
5:39 AM55.4 °F51.8 °F88 %30.04 in5.0 miNE (50°)11.5 mphRainLight Rain
5:43 AM55.4 °F51.8 °F88 %30.04 in3.7 miNE (40°)12.7 mphRainLight Rain
5:44 AM55.4 °F51.8 °F88 %30.04 in3.7 miNE (40°)11.5 mphRainLight Rain
5:46 AM55.4 °F51.8 °F88 %30.04 in5.0 miNE (50°)10.4 mphRainLight Rain
5:47 AM55.4 °F51.8 °F88 %30.04 in5.0 miNE (50°)10.4 mphRainLight Rain
5:53 AM55.4 °F51.8 °F88 %30.05 in5.6 miENE (60°)13.8 mphRainLight Rain
5:54 AM55.4 °F51.8 °F88 %30.05 in5.6 miENE (60°)12.7 mphRainLight Rain
5:58 AM55.6 °F52.0 °F88 %30.06 in5.0 miENE (60°)15.0 mph20.7 mph0.04 inRainLight Rain
5:59 AM55.4 °F51.8 °F88 %30.05 in5.0 miENE (70°)11.5 mph20.7 mphRainLight Rain
6:04 AM55.4 °F51.8 °F88 %30.06 in6.2 miEast (100°)16.1 mph23.0 mphRainLight Rain
6:07 AM55.4 °F51.8 °F88 %30.06 in6.2 miEast (100°)12.7 mph23.0 mphRainLight Rain
6:08 AM55.4 °F51.8 °F88 %30.06 in6.2 miESE (110°)12.7 mph23.0 mphRainLight Rain
6:09 AM55.4 °F51.8 °F88 %30.06 in6.2 miESE (110°)12.7 mph23.0 mphRainLight Rain
6:16 AM53.6 °F50.0 °F88 %30.06 in6.2 miESE (120°)13.8 mphRainLight Rain
6:22 AM53.6 °F50.0 °F88 %30.06 in6.2 miESE (110°)12.7 mphRainLight Rain
6:24 AM53.6 °F50.0 °F88 %30.07 in6.2 miESE (110°)11.5 mphOvercast
6:45 AM53.6 °F50.0 °F88 %30.08 in6.2 miESE (110°)12.7 mphOvercast
6:50 AM51.8 °F50.0 °F94 %30.08 in6.2 miESE (110°)10.4 mphOvercast
6:54 AM51.8 °F50.0 °F94 %30.08 in6.2 miESE (110°)9.2 mphOvercast
6:58 AM52.7 °F49.3 °F88 %30.09 in6.2 miESE (110°)8.1 mph0.00 inOvercast
7:06 AM51.8 °F48.2 °F88 %30.08 in6.2 miESE (110°)6.9 mphOvercast
7:07 AM51.8 °F48.2 °F88 %30.08 in6.2 miESE (110°)8.1 mphOvercast
7:17 AM51.8 °F48.2 °F88 %30.08 in6.2 miESE (120°)9.2 mphOvercast
7:18 AM51.8 °F48.2 °F88 %30.08 in6.2 miESE (110°)8.1 mphOvercast
7:21 AM51.8 °F48.2 °F88 %30.08 in6.2 miESE (110°)9.2 mphOvercast
7:22 AM51.8 °F48.2 °F88 %30.08 in6.2 miESE (120°)9.2 mphOvercast
7:29 AM51.8 °F48.2 °F88 %30.09 in6.2 miESE (120°)6.9 mphOvercast
7:40 AM51.8 °F48.2 °F88 %30.09 in6.2 miEast (100°)5.8 mphOvercast
7:43 AM51.8 °F48.2 °F88 %30.10 in6.2 miEast (90°)5.8 mphOvercast
7:44 AM51.8 °F48.2 °F88 %30.10 in6.2 miEast (90°)5.8 mphOvercast
7:46 AM51.8 °F48.2 °F88 %30.10 in6.2 miEast (100°)6.9 mphOvercast
7:47 AM51.8 °F48.2 °F88 %30.10 in6.2 miEast (90°)8.1 mphOvercast
7:58 AM51.6 °F48.2 °F88 %30.11 in6.2 miEast (100°)6.9 mphOvercast
8:01 AM51.8 °F48.2 °F88 %30.10 in6.2 miEast (100°)6.9 mphOvercast
8:03 AM51.8 °F48.2 °F88 %30.10 in6.2 miEast (100°)5.8 mphOvercast
8:17 AM51.8 °F48.2 °F88 %30.11 in6.2 miEast (90°)5.8 mphOvercast
8:19 AM51.8 °F48.2 °F88 %30.11 in6.2 miEast (90°)5.8 mphRainLight Rain
8:25 AM51.8 °F48.2 °F88 %30.11 in6.2 miEast (90°)5.8 mphRainLight Rain
8:26 AM51.8 °F48.2 °F88 %30.11 in6.2 miEast (90°)5.8 mphMostly Cloudy
8:58 AM51.8 °F48.0 °F87 %30.14 in6.2 miEast (90°)5.8 mph0.00 inOvercast
8:59 AM51.8 °F48.2 °F88 %30.13 in6.2 miEast (90°)5.8 mphLight Drizzle
9:05 AM51.8 °F48.2 °F88 %30.13 in6.2 miEast (100°)5.8 mphOvercast
9:58 AM52.5 °F47.3 °F82 %30.14 in6.2 miENE (70°)4.6 mph0.00 inOvercast
10:12 AM53.6 °F46.4 °F77 %30.13 in6.2 miENE (60°)4.6 mphScattered Clouds
10:58 AM55.2 °F43.2 °F64 %30.14 in6.2 miVariable3.5 mphScattered Clouds
11:58 AM54.5 °F42.4 °F64 %30.15 in6.2 miEast (80°)6.9 mphMostly Cloudy
12:33 PM55.4 °F42.8 °F63 %30.13 in6.2 miNNE (30°)4.6 mphOvercast
12:58 PM55.2 °F41.9 °F61 %30.15 in6.2 miENE (60°)2.3 mphOvercast
1:07 PM55.4 °F42.8 °F63 %30.13 in6.2 miENE (70°)3.5 mphMostly Cloudy
1:21 PM55.4 °F42.8 °F63 %30.13 in6.2 miENE (60°)2.3 mphMostly Cloudy
1:58 PM55.0 °F42.3 °F62 %30.13 in6.2 miENE (60°)4.6 mphMostly Cloudy
2:09 PM55.4 °F42.8 °F63 %30.12 in6.2 miVariable3.5 mphScattered Clouds
2:58 PM53.6 °F42.6 °F66 %30.12 in6.2 miSE (130°)3.5 mphPartly Cloudy
3:05 PM53.6 °F44.6 °F72 %30.10 in6.2 miSSE (150°)3.5 mphRainLight Rain
3:58 PM53.2 °F43.5 °F70 %30.09 in6.2 miWest (260°)2.3 mph0.01 inRainLight Rain
4:58 PM52.0 °F46.2 °F81 %30.08 in6.2 miWest (280°)2.3 mph0.02 inRainLight Rain
4:59 PM51.8 °F46.4 °F82 %30.07 in6.2 miWest (280°)2.3 mphRainLight Rain
5:04 PM51.8 °F46.4 °F82 %30.07 in6.2 miWest (280°)3.5 mphRainLight Rain
5:09 PM51.8 °F46.4 °F82 %30.07 in6.2 miWest (280°)2.3 mphRainLight Rain
5:15 PM51.8 °F46.4 °F82 %30.06 in6.2 miWNW (300°)2.3 mphRainLight Rain
5:17 PM51.8 °F46.4 °F82 %30.06 in6.2 miWNW (300°)2.3 mphRainLight Rain
5:30 PM51.8 °F46.4 °F82 %30.06 in6.2 miWSW (250°)1.2 mphRainLight Rain
5:42 PM51.8 °F46.4 °F82 %30.06 in6.2 miWest (270°)2.3 mphRainLight Rain
5:58 PM51.4 °F46.8 °F84 %30.07 in6.2 miWNW (290°)2.3 mph0.02 inRainLight Rain
6:03 PM51.8 °F46.4 °F82 %30.05 in6.2 miWest (280°)2.3 mphRainLight Rain
6:20 PM50.0 °F46.4 °F87 %30.05 in6.2 miWest (280°)2.3 mphPartly Cloudy
6:45 PM50.0 °F46.4 °F87 %30.05 in6.2 miWest (280°)3.5 mphRainLight Rain
6:58 PM50.2 °F46.2 °F86 %30.06 in6.2 miWest (280°)2.3 mph0.00 inRainLight Rain
7:31 PM50.0 °F46.4 °F87 %30.05 in6.2 miWest (270°)3.5 mphRainLight Rain
7:58 PM50.2 °F46.9 °F89 %30.04 in6.2 miWest (260°)6.9 mph0.04 inRainLight Rain
8:13 PM50.0 °F46.4 °F87 %30.03 in6.2 miWest (260°)5.8 mphMostly Cloudy
8:14 PM50.0 °F46.4 °F87 %30.02 in6.2 miWest (260°)5.8 mphMostly Cloudy
8:58 PM49.8 °F46.8 °F89 %30.03 in6.2 miWSW (250°)4.6 mph0.00 inMostly Cloudy
9:52 PM50.0 °F48.2 °F94 %30.01 in6.2 miWNW (290°)3.5 mphScattered Clouds
9:58 PM50.2 °F47.3 °F90 %30.02 in6.2 miWest (280°)3.5 mphScattered Clouds
10:06 PM50.0 °F48.2 °F94 %30.01 in5.6 miWest (280°)4.6 mphMostly Cloudy
10:07 PM50.0 °F46.4 °F87 %30.01 in5.6 miWest (280°)5.8 mphMostly Cloudy
10:13 PM50.0 °F48.2 °F94 %30.01 in5.0 miWest (280°)5.8 mphMostly Cloudy
10:14 PM50.0 °F48.2 °F94 %30.01 in5.0 miWest (280°)5.8 mphRainLight Rain
10:16 PM50.0 °F48.2 °F94 %30.01 in5.0 miWest (280°)5.8 mphRainLight Rain
10:27 PM50.0 °F48.2 °F94 %30.00 in5.0 miWest (280°)5.8 mphRainLight Rain
10:42 PM50.0 °F48.2 °F94 %30.00 in5.0 miWest (270°)4.6 mphRainLight Rain
10:58 PM50.5 °F47.7 °F90 %30.01 in5.0 miWSW (250°)4.6 mph0.04 inRainLight Rain
10:59 PM50.0 °F48.2 °F94 %30.00 in5.0 miWSW (250°)4.6 mphRainLight Rain
11:00 PM50.0 °F48.2 °F94 %30.00 in5.0 miWSW (250°)4.6 mphLight Drizzle
11:03 PM50.0 °F48.2 °F94 %29.99 in5.0 miWSW (250°)5.8 mphRainLight Rain
11:18 PM50.0 °F48.2 °F94 %29.99 in5.0 miWest (270°)8.1 mphOvercast
11:33 PM50.0 °F48.2 °F94 %29.98 in5.6 miWest (280°)8.1 mphOvercast
11:35 PM50.0 °F48.2 °F94 %29.98 in5.6 miWest (260°)8.1 mphOvercast
11:58 PM50.0 °F47.5 °F91 %29.99 in5.6 miWest (280°)4.6 mph0.00 inMostly Cloudy
Hourly data recorded from EGUN, located miles away from Mildenhall, England







STORIES FROM OUR PARTNERS